VK5KJP Weather Reports


time (UTC)temp
C
wind
direction
speed
KPH
gust
KPH
rain 1hr
cm
rain 24hr
cm
rain mn
cm
humidity
%
barometer
mb
20260510082546 15 0.0 0.0 0.00 0.00 0.00 74 1031.2
20260510081546 16 0.0 0.0 0.00 0.00 0.00 73 1031.1
20260510080521 16 0.0 0.0 0.00 0.00 0.00 71 1031.0
20260510075547 16 0.0 0.0 0.00 0.00 0.00 71 1031.0
20260510074531 16 0.0 0.0 0.00 0.00 0.00 71 1030.9
20260510073546 16 0.0 0.0 0.00 0.00 0.00 69 1030.8
20260510072546 16 0.0 0.0 0.00 0.00 0.00 68 1030.8
20260510071547 16 0.0 0.0 0.00 0.00 0.00 69 1030.7
20260510070547 16 0.0 0.0 0.00 0.00 0.00 69 1030.7
20260510065520 16 0.0 0.0 0.00 0.00 0.00 70 1030.7
20260510064547 16 0.0 0.0 0.00 0.00 0.00 72 1030.7
20260510063531 16 0.0 0.0 0.00 0.00 0.00 74 1030.7
20260510062547 16 0.0 0.0 0.00 0.00 0.00 75 1030.7
20260510061540 16 0.0 0.0 0.00 0.00 0.00 76 1030.6
20260510060627 16 0.0 0.0 0.00 0.00 0.00 75 1030.7
20260510055627 16 0.0 0.0 0.00 0.00 0.00 75 1030.7
20260510054541 16 0.0 0.0 0.00 0.00 0.00 76 1030.6
20260510053546 16 0.0 0.0 0.00 0.00 0.00 76 1030.6
20260510052531 16 0.0 0.0 0.00 0.00 0.00 76 1030.6
20260510051547 16 0.0 0.0 0.00 0.00 0.00 77 1030.6
20260510050540 16 0.0 0.0 0.00 0.00 0.00 76 1030.5
20260510045606 16 0.0 0.0 0.00 0.00 0.00 74 1030.5
20260510044546 16 0.0 0.0 0.00 0.00 0.00 74 1030.6
20260510043520 16 0.0 0.0 0.00 0.00 0.00 75 1030.6
20260510042546 16 0.0 0.0 0.00 0.00 0.00 73 1030.6
20260510041530 16 0.0 0.0 0.00 0.00 0.00 75 1030.5
20260510040546 16 0.0 0.0 0.00 0.00 0.00 74 1030.6
20260510035541 17 0.0 0.0 0.00 0.00 0.00 75 1030.6
20260510034547 17 0.0 0.0 0.00 0.00 0.00 75 1030.7
20260510033546 17 0.0 0.0 0.00 0.00 0.00 71 1030.8
20260510032601 17 0.0 0.0 0.00 0.00 0.00 69 1030.9
20260510031546 17 0.0 0.0 0.00 0.00 0.00 72 1031.0
20260510030551 17 0.0 0.0 0.00 0.00 0.00 73 1031.2
20260510025546 17 0.0 0.0 0.00 0.00 0.00 72 1031.3
20260510024540 17 0.0 0.0 0.00 0.00 0.00 74 1031.5
20260510023546 17 124 4.8 9.7 0.00 0.00 0.00 75 1031.7
20260510022606 16 68 4.8 9.7 0.00 0.00 0.00 74 1031.9
20260510021520 16 68 6.4 14.5 0.00 0.00 0.00 74 1032.1
20260510020546 16 68 6.4 14.5 0.00 0.00 0.00 75 1032.1
20260510015551 16 92 4.8 14.5 0.00 0.00 0.00 76 1032.2
20260510014547 16 112 1.6 8.0 0.00 0.00 0.00 75 1032.3
20260510013541 16 0.0 0.0 0.00 0.00 0.00 76 1032.4
20260510012546 16 0.0 0.0 0.00 0.00 0.00 77 1032.4
20260510011546 16 68 1.6 6.4 0.00 0.00 0.00 76 1032.4
20260510010521 16 0.0 0.0 0.00 0.05 0.00 77 1032.5
20260510005546 16 0.0 0.0 0.00 0.05 0.00 78 1032.4
20260510004531 16 0.0 0.0 0.00 0.05 0.00 79 1032.5
20260510003546 15 0.0 0.0 0.00 0.05 0.00 80 1032.5
20260510002541 15 0.0 0.0 0.00 0.05 0.00 80 1032.5
20260510001546 15 0.0 0.0 0.00 0.05 0.00 82 1032.5
20260510000546 15 0.0 0.0 0.00 0.05 0.00 84 1032.5
20260509235541 15 0.0 0.0 0.00 0.05 0.00 85 1032.5
20260509234546 15 0.0 0.0 0.00 0.05 0.00 86 1032.6
20260509233531 14 90 1.6 8.0 0.00 0.05 0.00 87 1032.6
20260509232546 14 0.0 0.0 0.00 0.05 0.00 91 1032.6
20260509231541 14 0.0 0.0 0.00 0.05 0.00 93 1032.6
20260509230546 13 0.0 0.0 0.00 0.08 0.00 94 1032.5
20260509225546 13 0.0 0.0 0.00 0.08 0.00 94 1032.4
20260509224521 13 0.0 0.0 0.00 0.13 0.00 94 1032.4
20260509223546 12 0.0 0.0 0.00 0.13 0.00 94 1032.3
20260509222531 12 0.0 0.0 0.00 0.13 0.00 93 1032.2
20260509221546 12 0.0 0.0 0.00 0.15 0.00 93 1032.2
20260509220601 12 0.0 0.0 0.00 0.15 0.00 93 1032.1
20260509215546 12 0.0 0.0 0.00 0.20 0.00 93 1032.0
20260509214546 12 0.0 0.0 0.00 0.20 0.00 92 1031.9
20260509213521 12 0.0 0.0 0.00 0.20 0.00 92 1031.8
20260509212546 12 0.0 0.0 0.00 0.23 0.00 91 1031.7
20260509211531 12 0.0 0.0 0.00 0.23 0.00 90 1031.5
20260509210546 13 0.0 0.0 0.00 0.23 0.00 91 1031.5
20260509205546 13 0.0 0.0 0.00 0.28 0.00 90 1031.4
20260509204546 12 0.0 0.0 0.00 0.28 0.00 91 1031.4
20260509203546 12 0.0 0.0 0.00 0.28 0.00 91 1031.3
20260509202521 12 0.0 0.0 0.00 0.28 0.00 91 1031.3
20260509201546 13 0.0 0.0 0.00 0.28 0.00 91 1031.2
20260509200531 13 0.0 0.0 0.00 0.28 0.00 90 1031.1
20260509195546 13 0.0 0.0 0.00 0.28 0.00 90 1031.0
20260509194601 13 0.0 0.0 0.00 0.28 0.00 90 1030.9
20260509193546 13 0.0 0.0 0.00 0.28 0.00 90 1030.8
20260509192546 13 0.0 0.0 0.00 0.28 0.00 90 1030.8
20260509191521 13 0.0 0.0 0.00 0.28 0.00 90 1030.7
20260509190546 13 0.0 0.0 0.00 0.28 0.00 90 1030.6
20260509185531 13 0.0 0.0 0.00 0.28 0.00 90 1030.5
20260509184546 13 0.0 0.0 0.00 0.28 0.00 90 1030.4
20260509183601 13 0.0 0.0 0.00 0.28 0.00 90 1030.5
20260509182546 13 0.0 0.0 0.00 0.28 0.00 90 1030.5
20260509181546 13 0.0 0.0 0.00 0.28 0.00 90 1030.5
20260509180521 13 0.0 0.0 0.00 0.28 0.00 90 1030.5
20260509175546 13 0.0 0.0 0.00 0.28 0.00 89 1030.4
20260509174531 13 0.0 0.0 0.00 0.28 0.00 89 1030.5
20260509173546 14 0.0 0.0 0.00 0.28 0.00 88 1030.5
20260509172541 14 0.0 0.0 0.00 0.28 0.00 88 1030.3
20260509171606 14 0.0 0.0 0.00 0.28 0.00 87 1030.4
20260509170546 14 0.0 0.0 0.00 0.28 0.00 87 1030.4
20260509165541 14 0.0 0.0 0.00 0.28 0.00 87 1030.4
20260509164546 14 0.0 0.0 0.00 0.28 0.00 87 1030.4
20260509163531 14 112 3.2 11.3 0.00 0.28 0.00 87 1030.5
20260509162545 14 0.0 0.0 0.00 0.28 0.00 87 1030.5
20260509161542 14 0.0 0.0 0.00 0.28 0.00 88 1030.6
20260509160546 14 0.0 0.0 0.00 0.28 0.00 88 1030.6
20260509155545 14 0.0 0.0 0.00 0.28 0.00 88 1030.6
20260509154521 14 0.0 0.0 0.00 0.28 0.00 88 1030.7
20260509153546 14 0.0 0.0 0.00 0.28 0.00 88 1030.7
20260509152531 14 0.0 0.0 0.00 0.28 0.00 88 1030.8
20260509151545 14 0.0 0.0 0.00 0.28 0.00 88 1030.8
20260509150545 14 0.0 0.0 0.00 0.28 0.00 88 1030.9
20260509145557 15 0.0 0.0 0.00 0.28 0.00 89 1030.9
20260509144546 15 90 3.2 11.3 0.00 0.28 0.00 89 1030.9
20260509143521 15 91 4.8 11.3 0.00 0.28 0.00 89 1030.9
20260509142546 15 0.0 0.0 0.00 0.28 0.28 89 1030.9
20260509141531 15 0.0 0.0 0.00 0.28 0.28 89 1031.0
20260509140545 15 0.0 0.0 0.00 0.28 0.28 89 1031.0
20260509135606 15 112 1.6 14.5 0.00 0.28 0.28 88 1031.0
20260509134545 15 151 9.7 14.5 0.00 0.28 0.28 86 1031.0
20260509133626 14 151 8.0 14.5 0.00 0.28 0.28 89 1031.0
20260509132521 13 0.0 0.0 0.00 0.28 0.28 94 1031.1
20260509131606 13 0.0 0.0 0.00 0.28 0.28 94 1031.2
20260509130531 13 0.0 0.0 0.00 0.33 0.28 94 1031.2
20260509125627 13 0.0 0.0 0.00 0.33 0.28 94 1031.2
20260509124605 13 0.0 0.0 0.00 0.33 0.28 94 1031.2
20260509123545 13 0.0 0.0 0.00 0.33 0.28 94 1031.2
20260509122545 12 0.0 0.0 0.00 0.33 0.28 94 1031.3
20260509121521 12 0.0 0.0 0.00 0.33 0.28 94 1031.3
20260509120545 12 0.0 0.0 0.00 0.33 0.28 94 1031.2
20260509115531 12 0.0 0.0 0.00 0.33 0.28 94 1031.2
20260509114545 12 0.0 0.0 0.00 0.33 0.28 93 1031.2
20260509113545 13 0.0 0.0 0.00 0.33 0.28 93 1031.1
20260509112606 13 0.0 0.0 0.00 0.33 0.28 92 1031.1
20260509111546 13 0.0 0.0 0.00 0.33 0.28 93 1031.1
20260509110521 13 0.0 0.0 0.00 0.33 0.28 92 1031.2
20260509105605 13 0.0 0.0 0.00 0.33 0.28 92 1031.2
20260509104531 13 0.0 0.0 0.00 0.33 0.28 92 1031.1
20260509103545 13 0.0 0.0 0.00 0.33 0.28 92 1031.1
20260509102545 13 0.0 0.0 0.00 0.33 0.28 92 1031.1
20260509101606 14 0.0 0.0 0.00 0.33 0.28 92 1031.1
20260509100545 14 0.0 0.0 0.00 0.33 0.28 91 1031.1
20260509095521 14 0.0 0.0 0.00 0.33 0.28 91 1031.1
20260509094545 14 202 3.2 11.3 0.00 0.33 0.28 91 1031.2
20260509093551 14 202 4.8 12.9 0.00 0.33 0.28 90 1031.2
20260509092545 14 0.0 0.0 0.00 0.33 0.28 90 1031.1
20260509091545 14 0.0 0.0 0.00 0.33 0.28 90 1031.0
20260509090545 14 0.0 0.0 0.00 0.33 0.28 90 1031.0
20260509085545 14 0.0 0.0 0.00 0.33 0.28 89 1031.0
20260509084521 15 180 1.6 6.4 0.00 0.33 0.28 88 1030.9
20260509083545 15 184 11.3 14.5 0.00 0.33 0.28 88 1030.8